Location: Unspecified
(22.6800°N, 112.2000°E)
Time: 09:02:53
(UTC+08:00)

S-56A Canister/Altair - Pass Details

Date: 24 July 2021
Orbit: 632 x 2500 km, 38.9° (Epoch: 27 September)

Event Time Altitude Azimuth Distance (km) Brightness Sun altitude
Rises 02:37:46 0° 283° (WNW) 4,391 - -38.3°
Reaches altitude 10° 02:43:06 10° 258° (WSW) 2,955 - -37.6°
Maximum altitude 02:45:52 13° 234° (SW) 2,537 - -37.2°
Drops below altitude 10° 02:48:20 10° 209° (SSW) 2,531 - -36.8°
Sets 02:52:08 0° 179° (S) 3,196 - -36.3°
